CZ-6A DEB, 61136

Orbit data source: Space-Track

CZ-6A DEB, 61136 is space debris in LEO originally from a launch on Tue, 06 Aug 2024 UTC launched from the Taiyaun Space Center, China (TSC). Debris objects in space refer to the collection of defunct objects orbiting the Earth. Examples of debris include non-operational satellites, rocket bodies, and fragments generated from explosions, collisions, or faulty payload assembly.

Loading next visibility...
Identifier
61136, 2024-140QE
Orbit
LEO
Country
Flag of CNCN / PRC
Related business
Manufacturer
SAST
Mission
Spacecraft
Bus & Motor
Unknown
Mass
Unknown
Launch date (UTC)
2024-08-06 (1 year ago)
Launch vehicle
Unknown
Launch site
Taiyaun Space Center, China (TSC)
Object type
Payload
Rocket body
Debris
Shape & HBR
Unknown shape, 0.1 m
Radar Cross Section
Small (<0.1 m²)

Expand to show TLE details & history
Last TLE update: 9 hours ago

TLE from 9 hours ago
0 CZ-6A DEB
1 61136U 24140QE  25354.11080851  .00002596  00000-0  11000-2 0  9997
2 61136  89.1175 301.6468 0092147  97.6762 263.4907 14.22897084 68839
Epoch: 2025-12-20T02:39Z
TLE epoch observation values (Epoch: 2025-12-20T02:39:33.855Z)
Latitude
0.00008°
Longitude
172.81343°
Altitude
826.748 km
Speed
7.435 km/s
True Right ascension
20h 06m 35s
True Declination
0° 00' 00"
Sunlit
Object was in daylight at epoch
Visualization orbit readout
Latitude
Unknown
Longitude
Unknown
Altitude
Unknown
Speed
Unknown
Apparent Right ascension
Unknown
Apparent Declination
Unknown
Sunlit
N/A
Visualization observer readout
Local Sidereal Time
10:09:52
Azimuth
Unknown
Elevation
Unknown
Doppler factor
Unknown
Orbital elements
Apogee altitude
878.778 km
Perigee altitude
746.258 km
Semi-major axis
7,190.655 km
Eccentricity
0.00921
Inclination
89.1175°
RAAN
301.6468°
Arg. of periapsis
97.6762°
True anomaly
262.44301°
Mean anomaly
263.4907°
Eccentric anomaly
262.96671°
Mean motion
3.55951 °/min
Orbital period
101.14 mins
BSTAR
0.0011
Loading maneuver chart data...
Computing Atmospheric mass density...

Documentation

Showing up to 5 results
|